SCP
0 0 0 0 -0 -0 0 0 0 0 0 0 0 0 0 0 0 0 0 0 0 0 0 0 0 0 0 0 0 0 0 0
0 0 0 0 0 0 0 0 0 0 0 0 0 0 0 0 0 0 0 0 0 0 0 0 0 -0 -0 -0 0 0 0 0
0 0 0 0 0 0 0 0 0 0 0 0 0 0 0 0 0 0 0 0 0 0 0 0 0 -0 -0 -0 -0 -0 -0 0
0 0 0 0 0 0 0 0 0 0 0 0 0 0 0 0 0 0 0 0 0 0 0 0 0 -0 -0 -0 -0 -0 -0 -0
0 0 0 0 0 0 0 0 0 0 0 0 0 0 0 0 0 0 0 0 0 -0 -0 -0 -0 -0 -0 -0 -0 -0 -0 0
0 0 0 0 0 0 0 0 0 0 0 0 0 0 0 0 0 0 0 0 0 0 0 -0 -0 -0 -0 -0 -0 -0 -0 0
0 0 0 0 0 0 0 0 0 0 0 0 0 0 0 0 0 0 0 0 0 0 0 0 0 0 0 0 0 0 0 0
0 0 0 0 0 0 0 0 0 0 0 0 0 0 0 0 0 0 0 0 0 0 0 0 0 0 0 0 0 0 0 0
0 0 0 0 0 0 0 0 0 0 0 0 0 0 0 0 0 0 0 0 0 0 0 0 0 0 0 0 0 0 0 0
0 0 0 0 0 0 0 0 0 0 0 0 0 0 0 0 0 0 0 0 0 0 0 0 0 -0 -0 0 0 0 0 0
0 0 0 0 0 0 0 0 0 0 0 0 0 0 0 0 0 0 0 0 0 0 0 0 0 -0 0 0 0 0 0 0
0 0 0 0 0 0 0 0 0 0 0 0 0 0 0 0 0 0 0 0 0 0 0 0 0 0 0 0 0 0 0 0
0 0 0 0 0 0 0 0 0 0 0 0 0 0 0 0 0 0 0 0 0 0 0 0 0 0 -0 -0 -0 0 0 0
0 0 0 0 0 0 0 0 0 0 0 0 0 0 0 0 0 0 0 0 0 0 0 0 0 0 0 -0 -0 0 0 0
0 0 0 0 0 0 0 0 0 0 0 0 0 0 0 0 0 0 0 0 0 0 0 0 0 0 0 0 0 0 0 0
0 0 0 0 0 0 0 0 0 0 0 0 0 0 0 0 0 0 0 0 0 0 -0 -0 -0 -0 -0 -0 -0 0 0 0
0 0 0 0 0 0 0 0 0 0 0 0 0 0 0 0 0 0 0 0 0 -0 -0 0 -0 -0 -0 -0 -0 0 0 0
0 0 0 0 0 0 0 0 0 0 0 0 0 0 0 0 0 0 0 0 0 0 0 0 0 0 0 0 0 0 0 0
0 0 0 0 0 0 0 0 0 0 0 0 0 0 0 0 0 0 0 0 0 0 0 0 0 0 0 0 0 0 0 0
0 0 0 0 0 0 0 0 0 0 0 0 0 0 0 0 0 0 0 0 -0 0 0 0 0 0 0 0 0 0 0 0
Wind_Speed_500mb
19 9 4 3 3 1 2 4 6 9 11 14 16 18 21 25 29 33 35 38 42 45 47 49 49 50 53 53 51 54 52 51
22 15 12 10 9 9 7 3 1 3 8 12 16 20 24 28 33 36 40 44 47 52 55 57 59 60 63 62 62 62 63 61
29 24 21 18 17 15 11 6 3 7 12 17 21 24 27 31 35 39 42 44 49 53 58 63 67 70 74 77 77 77 79 77
39 36 28 24 23 19 15 13 9 14 20 25 31 35 38 42 46 48 51 53 56 63 70 75 78 81 84 88 90 90 89 89
46 38 32 29 26 21 18 16 16 21 26 32 37 41 45 50 52 53 56 62 70 79 86 92 96 98 98 95 93 93 95 97
48 39 36 33 29 24 19 22 25 29 33 38 43 47 52 57 57 59 64 73 81 87 91 94 96 96 94 92 94 97 101 101
42 37 35 32 31 31 31 33 35 37 41 46 50 54 58 60 61 66 74 81 86 91 93 93 91 92 93 91 92 96 100 108
36 38 34 38 39 42 45 46 45 45 47 51 54 57 62 62 66 75 80 85 88 90 93 95 96 94 94 91 92 97 100 99
32 33 30 32 44 52 56 52 49 49 48 51 57 61 60 64 72 75 81 84 86 89 91 95 98 96 92 84 81 88 89 84
30 34 36 43 50 51 50 49 52 53 52 55 58 58 62 69 70 76 81 83 84 87 92 94 95 88 81 71 71 72 71 66
35 42 50 50 52 54 54 54 55 54 55 55 55 58 67 69 73 75 77 80 84 87 85 84 85 77 69 59 60 67 70 71
41 48 48 53 58 61 61 58 55 54 53 53 55 61 63 66 69 75 78 80 83 84 83 78 73 70 61 54 58 66 73 78
48 47 51 59 65 66 65 59 53 53 54 53 55 58 59 64 67 70 72 77 79 80 81 73 70 67 69 57 57 60 70 76
52 52 57 63 69 69 62 55 53 54 54 54 55 56 57 62 63 68 67 72 74 74 76 78 73 78 79 68 61 63 71 79
59 58 60 65 69 65 60 56 55 55 55 54 55 55 55 58 58 62 62 68 70 71 79 82 79 73 77 74 84 82 82 85
59 58 61 67 65 61 59 55 54 56 55 54 55 55 56 56 54 56 56 59 61 61 66 69 73 73 66 68 71 73 77 79
56 57 63 65 61 59 56 56 58 58 55 53 53 53 54 57 58 42 50 51 51 43 43 51 54 58 61 63 65 65 62 63
55 55 57 57 56 56 56 60 60 56 54 54 53 53 53 55 57 61 41 40 47 43 44 42 46 52 56 57 54 58 52 49
49 52 53 54 53 55 60 58 55 54 53 54 51 50 51 52 50 49 51 48 40 39 46 45 46 46 50 50 53 49 45 48
48 51 52 53 50 56 55 53 52 52 51 50 49 48 48 48 45 43 43 43 42 40 37 42 44 49 47 48 54 57 58 57
Wind_Direction_500mb
203 208 225 300 326 40 63 57 47 29 11 4 360 356 353 347 341 340 336 332 330 328 328 330 329 327 323 322 320 316 314 312
219 231 247 258 235 210 196 179 84 17 358 348 341 340 338 334 332 328 327 326 326 325 326 325 324 322 319 317 314 310 307 306
234 243 249 248 226 211 207 222 288 340 334 328 326 323 320 321 322 321 321 323 322 321 320 319 318 316 314 311 309 306 304 301
237 241 243 237 224 220 228 242 278 318 324 323 322 323 322 323 322 322 321 322 320 319 317 315 312 308 306 305 302 300 297 295
239 235 238 230 223 223 235 255 283 302 308 309 311 314 317 317 317 316 316 316 316 315 314 313 312 311 310 308 304 300 296 293
235 239 234 229 229 232 246 264 271 281 291 298 301 304 308 310 310 310 312 313 312 311 310 310 309 309 309 307 304 301 298 294
233 233 234 240 241 246 254 258 263 273 286 291 293 298 302 304 305 308 310 310 310 310 310 310 309 307 305 303 299 295 292 292
237 241 247 255 249 249 254 254 258 267 277 283 287 294 300 301 305 308 309 310 312 313 312 312 310 309 305 302 296 292 289 286
238 240 244 251 243 246 252 252 255 264 273 282 287 293 295 300 305 308 310 312 314 314 314 313 313 312 311 307 299 293 291 289
244 245 255 258 253 250 247 253 258 263 271 281 286 289 296 304 308 312 313 313 314 316 316 316 316 318 316 310 303 298 297 297
259 266 262 262 261 256 253 254 256 263 274 282 286 295 305 308 311 313 314 315 317 318 318 318 321 320 316 310 306 302 303 303
269 267 265 265 260 252 249 251 257 267 277 282 288 299 304 308 313 316 316 317 317 318 320 326 323 320 321 312 306 304 307 307
267 262 264 261 252 246 247 253 263 275 279 281 290 300 305 311 314 314 316 318 318 320 322 325 322 325 333 314 308 305 299 299
257 258 264 257 248 246 251 260 270 276 279 283 295 302 308 312 313 314 319 318 320 323 323 325 328 331 331 323 314 311 306 303
251 257 258 252 247 249 255 264 273 277 280 286 296 303 308 311 314 317 320 319 321 326 328 328 324 317 323 327 324 319 314 311
254 262 258 247 248 252 260 268 274 277 281 287 297 304 307 311 315 318 322 322 322 320 316 315 314 320 319 316 314 314 313 308
258 254 247 246 250 256 263 272 277 278 280 288 296 302 307 311 312 316 317 319 322 319 312 313 312 317 318 318 316 314 313 310
257 249 246 250 255 261 268 275 276 277 282 290 296 302 307 309 311 315 315 317 325 335 335 328 323 326 328 325 324 315 321 320
251 251 254 257 261 265 270 272 274 277 284 290 295 300 302 305 308 312 317 323 325 330 340 341 338 338 338 340 339 337 340 340
258 259 262 264 266 269 272 274 276 280 283 287 291 294 297 300 304 308 310 315 323 328 332 333 343 351 345 350 355 356 354 350
Wind_Speed_850mb
19 9 4 3 3 1 2 4 6 9 11 14 16 18 21 25 29 33 35 38 42 45 47 49 49 50 53 53 51 54 52 51
22 15 12 10 9 9 7 3 1 3 8 12 16 20 24 28 33 36 40 44 47 52 55 57 59 60 63 62 62 62 63 61
29 24 21 18 17 15 11 6 3 7 12 17 21 24 27 31 35 39 42 44 49 53 58 63 67 70 74 77 77 77 79 77
39 36 28 24 23 19 15 13 9 14 20 25 31 35 38 42 46 48 51 53 56 63 70 75 78 81 84 88 90 90 89 89
46 38 32 29 26 21 18 16 16 21 26 32 37 41 45 50 52 53 56 62 70 79 86 92 96 98 98 95 93 93 95 97
48 39 36 33 29 24 19 22 25 29 33 38 43 47 52 57 57 59 64 73 81 87 91 94 96 96 94 92 94 97 101 101
42 37 35 32 31 31 31 33 35 37 41 46 50 54 58 60 61 66 74 81 86 91 93 93 91 92 93 91 92 96 100 108
36 38 34 38 39 42 45 46 45 45 47 51 54 57 62 62 66 75 80 85 88 90 93 95 96 94 94 91 92 97 100 99
32 33 30 32 44 52 56 52 49 49 48 51 57 61 60 64 72 75 81 84 86 89 91 95 98 96 92 84 81 88 89 84
30 34 36 43 50 51 50 49 52 53 52 55 58 58 62 69 70 76 81 83 84 87 92 94 95 88 81 71 71 72 71 66
35 42 50 50 52 54 54 54 55 54 55 55 55 58 67 69 73 75 77 80 84 87 85 84 85 77 69 59 60 67 70 71
41 48 48 53 58 61 61 58 55 54 53 53 55 61 63 66 69 75 78 80 83 84 83 78 73 70 61 54 58 66 73 78
48 47 51 59 65 66 65 59 53 53 54 53 55 58 59 64 67 70 72 77 79 80 81 73 70 67 69 57 57 60 70 76
52 52 57 63 69 69 62 55 53 54 54 54 55 56 57 62 63 68 67 72 74 74 76 78 73 78 79 68 61 63 71 79
59 58 60 65 69 65 60 56 55 55 55 54 55 55 55 58 58 62 62 68 70 71 79 82 79 73 77 74 84 82 82 85
59 58 61 67 65 61 59 55 54 56 55 54 55 55 56 56 54 56 56 59 61 61 66 69 73 73 66 68 71 73 77 79
56 57 63 65 61 59 56 56 58 58 55 53 53 53 54 57 58 42 50 51 51 43 43 51 54 58 61 63 65 65 62 63
55 55 57 57 56 56 56 60 60 56 54 54 53 53 53 55 57 61 41 40 47 43 44 42 46 52 56 57 54 58 52 49
49 52 53 54 53 55 60 58 55 54 53 54 51 50 51 52 50 49 51 48 40 39 46 45 46 46 50 50 53 49 45 48
48 51 52 53 50 56 55 53 52 52 51 50 49 48 48 48 45 43 43 43 42 40 37 42 44 49 47 48 54 57 58 57
Wind_Direction_850mb
203 208 225 300 326 40 63 57 47 29 11 4 360 356 353 347 341 340 336 332 330 328 328 330 329 327 323 322 320 316 314 312
219 231 247 258 235 210 196 179 84 17 358 348 341 340 338 334 332 328 327 326 326 325 326 325 324 322 319 317 314 310 307 306
234 243 249 248 226 211 207 222 288 340 334 328 326 323 320 321 322 321 321 323 322 321 320 319 318 316 314 311 309 306 304 301
237 241 243 237 224 220 228 242 278 318 324 323 322 323 322 323 322 322 321 322 320 319 317 315 312 308 306 305 302 300 297 295
239 235 238 230 223 223 235 255 283 302 308 309 311 314 317 317 317 316 316 316 316 315 314 313 312 311 310 308 304 300 296 293
235 239 234 229 229 232 246 264 271 281 291 298 301 304 308 310 310 310 312 313 312 311 310 310 309 309 309 307 304 301 298 294
233 233 234 240 241 246 254 258 263 273 286 291 293 298 302 304 305 308 310 310 310 310 310 310 309 307 305 303 299 295 292 292
237 241 247 255 249 249 254 254 258 267 277 283 287 294 300 301 305 308 309 310 312 313 312 312 310 309 305 302 296 292 289 286
238 240 244 251 243 246 252 252 255 264 273 282 287 293 295 300 305 308 310 312 314 314 314 313 313 312 311 307 299 293 291 289
244 245 255 258 253 250 247 253 258 263 271 281 286 289 296 304 308 312 313 313 314 316 316 316 316 318 316 310 303 298 297 297
259 266 262 262 261 256 253 254 256 263 274 282 286 295 305 308 311 313 314 315 317 318 318 318 321 320 316 310 306 302 303 303
269 267 265 265 260 252 249 251 257 267 277 282 288 299 304 308 313 316 316 317 317 318 320 326 323 320 321 312 306 304 307 307
267 262 264 261 252 246 247 253 263 275 279 281 290 300 305 311 314 314 316 318 318 320 322 325 322 325 333 314 308 305 299 299
257 258 264 257 248 246 251 260 270 276 279 283 295 302 308 312 313 314 319 318 320 323 323 325 328 331 331 323 314 311 306 303
251 257 258 252 247 249 255 264 273 277 280 286 296 303 308 311 314 317 320 319 321 326 328 328 324 317 323 327 324 319 314 311
254 262 258 247 248 252 260 268 274 277 281 287 297 304 307 311 315 318 322 322 322 320 316 315 314 320 319 316 314 314 313 308
258 254 247 246 250 256 263 272 277 278 280 288 296 302 307 311 312 316 317 319 322 319 312 313 312 317 318 318 316 314 313 310
257 249 246 250 255 261 268 275 276 277 282 290 296 302 307 309 311 315 315 317 325 335 335 328 323 326 328 325 324 315 321 320
251 251 254 257 261 265 270 272 274 277 284 290 295 300 302 305 308 312 317 323 325 330 340 341 338 338 338 340 339 337 340 340
258 259 262 264 266 269 272 274 276 280 283 287 291 294 297 300 304 308 310 315 323 328 332 333 343 351 345 350 355 356 354 350